Regional Weather Roundup
Issued by NWS Green Bay, WI

Home | Current Version | Previous Version | Graphics & Text | Print | Product List | Glossary Off
Versions: 1 2 3 4 5 6 7 8 9 10 11 12 13 14 15 16 17 18 19 20 21 22 23 24 25 26 27 28 29 30 31 32 33 34 35 36 37 38 39 40 41 42 43 44 45 46 47 48 49 50

000
ASUS43 KGRB 270500
RWRGRB

NORTH-CENTRAL AND NORTHEAST WISCONSIN REGIONAL WEATHER ROUNDUP
NATIONAL WEATHER SERVICE GREEN BAY WI
1200 AM CDT SAT MAY 27 2017

WIZ005-009-010>012-018-019-270600-
NORTH CENTRAL WISCONSIN

CITY           SKY/WX    TMP DP  RH WIND       PRES   REMARKS
IRONWOOD       CLEAR     60  55  83 S5        29.81S
MANITOWISH WTR NOT AVBL
ARBOR VITAE    NOT AVBL
EAGLE RIVER    NOT AVBL
LAND O LAKES   CLOUDY    58  56  94 CALM      29.86S
RHINELANDER    CLEAR     58  54  86 S3        29.85S
PHILLIPS       CLOUDY    59  56  88 SW3       29.83R
ANTIGO         NOT AVBL
TOMAHAWK       NOT AVBL
MERRILL        CLEAR     59  54  85 S3        29.86S
$$

WIZ013-073-270600-
NORTHEAST WISCONSIN

CITY           SKY/WX    TMP DP  RH WIND       PRES   REMARKS
IRON MOUNTAIN  CLOUDY    56  52  86 CALM      29.85F
MARINETTE      CLOUDY    54  51  90 CALM      29.86S
$$

WIZ017-030-035>037-045-270600-
CENTRAL WISCONSIN

CITY           SKY/WX    TMP DP  RH WIND       PRES   REMARKS
MEDFORD        NOT AVBL
WAUSAU         CLEAR     55  52  89 SE3       29.85R
MOSINEE        NOT AVBL
MARSHFIELD     CLEAR     54  51  90 S8        29.85S
WISC RAPIDS    CLEAR     58  52  80 S7        29.88R
STEVENS POINT  NOT AVBL
WAUPACA        NOT AVBL
SHAWANO        NOT AVBL
CLINTONVILLE   CLEAR     55  52  88 S5        29.86S
WAUTOMA        CLEAR     54  53  97 CALM      29.89R
$$

WIZ038-039-048-051-270600-
FOX VALLEY

CITY           SKY/WX    TMP DP  RH WIND       PRES   REMARKS
NWS GREEN BAY  CLEAR     59  57  93 S5        29.86S
APPLETON       NOT AVBL
OSHKOSH        CLEAR     56  53  90 CALM      29.87R
FOND DU LAC    CLEAR     54  50  86 S3        29.87S
$$

WIZ022-050-052-270600-
EAST CENTRAL WISCONSIN

CITY           SKY/WX    TMP DP  RH WIND       PRES   REMARKS
EPHRAIM        NOT AVBL
WASHINGTON ISL NOT AVBL
STURGEON BAY   CLOUDY    56  52  86 SE5       29.86F
MANITOWOC      NOT AVBL
SHEBOYGAN      CLOUDY    54  54 100 CALM      29.87S
$$

LMZ563-521-522-541>543-270600-
LAKESHORE

STATION/POSITION TIME  TEMP    WIND        PRES    VSBY  WAVE
                       AIR SEA DIR/SP/G                  HT/PER
                 (UTC) (F)     (DEG/KT/KT) (MB)    (MI)  (FT/S)
SHEBOYGAN LKSHOR 0400   56     180/  5/  5 1011.5F
KEWAUNEE LKSHORE 0430   50     160/  6/  6 1011.2F
NORTHPORT PIER   0440   51     140/  5/ 10 1011.2F
N MID LAKE BUOY  0350   44 42  140/  2/  4 1012.8R         0
CHAMBERS ISLAND  0440   57     100/  3/  4 1010.8S
MENOMINEE LKSHOR 0430          180/  6/  7 1010.1S
$$



USA.gov is the U.S. government's official web portal to all federal, state and local government web resources and services.